sat.trackr.live / text

‹ back to catalog

GJZ 05

NORAD 62294 · 2024-238E

PAYLOAD ACTIVE UNKNOWN

§ Identity

Operator
Country
PRC
Launch date
2024-12-12
Launch site
JSC
Launch vehicle
Mass (kg)
RCS (m²)

External: N2YO · Heavens-Above · Gunter

§ Orbital elements

Epoch: 2026-05-25T01:55:49.175328Z

Period
104.71 min
Inclination
59.9134°
Eccentricity
0.0013694
Mean motion
13.75188158 rev/d
Perigee alt
970.9 km
Apogee alt
991.1 km
Semi-major
7,359.1 km
B*
7.0335e-5
RAAN
340.9183°
Arg perigee
356.9717°
Mean anomaly
3.1206°
Rev number
7,273

§ Raw data

GJZ 051 62294U 24238E   26145.08043027 -.00000051  00000+0  70335-4 0  99922 62294  59.9134 340.9183 0013694 356.9717   3.1206 13.75188158 72733

JSON: /api/v1/satellites/62294 · /tle

For live sub-satellite position, see the globe view (requires WebGL).

§ Visibility from observer

Set your observer location to see the next 7 days of passes ≥ 10°. The values pass through the URL so the page stays shareable.

No JS? Fill the form by hand. The geolocation button needs JavaScript.